Regional Weather Roundup
Issued by NWS

Home | Current Version | Previous Version | Graphics & Text | Print | Product List | Glossary On
Versions: 1 2 3 4 5 6 7 8 9 10 11 12 13 14 15 16 17 18 19 20 21 22 23 24 25 26 27 28 29 30 31 32 33 34 35 36 37 38 39 40 41 42 43 44 45 46 47 48 49 50
419
ASUS44 KLIX 011805
RWRLA
LOUISIANA WEATHER ROUNDUP
NATIONAL WEATHER SERVICE NEW ORLEANS LA
100 PM CDT WED OCT 01 2014

NOTE: "FAIR" INDICATES FEW OR NO CLOUDS BELOW 12,000 FEET WITH NO
      SIGNIFICANT WEATHER AND/OR OBSTRUCTIONS TO VISIBILITY.
      SKY/WX - SKY CONDITION AND SIGNIFICANT WEATHER.
      TMP - AIR TEMPERATURE.    DP   - DEWPOINT TEMPERATURE.
      RH  - RELATIVE HUMIDITY.  PRES - PRESSURE.
      HX  - HEAT INDEX.         WCI  - WIND CHILL INDEX.

*  THESE STATIONS ARE NOT NWS OR FAA STATIONS AND ARE NOT UNDER
   NWS QUALITY CONTROL.

LAZ040-048-061>063-065-066-069-011900-
SOUTHEAST LOUISIANA

CITY           SKY/WX    TMP DP  RH WIND       PRES   REMARKS
N.O. AUDUBON     N/A     82  76  80 MISG        N/A
6HR MIN TEMP:  75; 6HR MAX TEMP:  82; 6HR PCP:  0.13;

N.O. INTL ARPT PTSUNNY   80  72  76 SE8       29.92F
6HR MIN TEMP:  76; 6HR MAX TEMP:  82; 6HR PCP: TRACE;

N.O. LAKEFRONT LGT RAIN  78  73  84 E3        29.93F
6HR MIN TEMP:  76; 6HR MAX TEMP:  82;

N.O. DOWNTOWN* FAIR      79  72  78 CALM      29.94S
6HR MIN TEMP:  75; 6HR MAX TEMP:  81; 6HR PCP:  0.05;

SLIDELL        FAIR      82  71  69 VRB5      29.92F
6HR MIN TEMP:  67; 6HR MAX TEMP:  84;

BATON ROUGE    CLOUDY    83  75  77 E9        29.91F
6HR MIN TEMP:  72; 6HR MAX TEMP:  83; 6HR PCP: TRACE;

BOOTHVILLE     FAIR      80  76  87 E8        29.94F
6HR MIN TEMP:  77; 6HR MAX TEMP:  82; 6HR PCP:  0.07;

BELLE CHASSE   CLOUDY    79  74  84 SE8       29.93S
6HR MIN TEMP:  72; 6HR MAX TEMP:  82; 6HR PCP:  0.13;

BOGALUSA*        N/A     84  70  62 S3        29.95F
6HR MIN TEMP:  67; 6HR MAX TEMP:  85;

GALLIANO*      NOT AVBL
NEW ROADS*     CLOUDY    82  74  77 SE8       29.90F
6HR MIN TEMP:  73; 6HR MAX TEMP:  82;

GONZALES*      CLOUDY    80  80  99 CALM      29.91F
6HR MIN TEMP:  71; 6HR MAX TEMP:  80; 6HR PCP:  0.06;

HAMMOND*       FAIR      81  72  74 E6        29.93F
HOUMA*         PTSUNNY  N/A N/A N/A SE7       29.91F
PORT FOURCHON* MOCLDY    81  75  83 SE7       29.96F FOG

$$

LAZ041-044-053-054-011900-
SOUTHWEST LOUISIANA

CITY           SKY/WX    TMP DP  RH WIND       PRES   REMARKS
LAKE CHARLES   PTSUNNY   87  76  69 S8        29.85F HX  97
6HR MIN TEMP:  75; 6HR MAX TEMP:  87; 6HR PCP: TRACE;

LAFAYETTE      CLOUDY    82  76  81 S7        29.90F
6HR MIN TEMP:  76; 6HR MAX TEMP:  82; 6HR PCP:  0.06;

PATTERSON      FAIR      84  77  79 SE9       29.92F
6HR MIN TEMP:  73; 6HR MAX TEMP:  84;

SALT POINT       N/A     85  78  80 SE8       29.89F HX  96
6HR MIN TEMP:  79; 6HR MAX TEMP:  85; 6HR PCP:  0.03;

NEW IBERIA     CLOUDY    83  77  82 SE6       29.90F
6HR MIN TEMP:  76; 6HR MAX TEMP:  85; 6HR PCP:  0.84;

CHENAULT AIRPK PTSUNNY   82  75  78 SE12      29.87F

$$

LAZ027-028-011900-
CENTRAL LOUISIANA

CITY           SKY/WX    TMP DP  RH WIND       PRES   REMARKS
FORT POLK      PTSUNNY   85  76  72 S6        29.87F HX  95
6HR MIN TEMP:  74; 6HR MAX TEMP:  86; 6HR PCP: TRACE;

ALEXANDRIA INT PTSUNNY   84  73  69 SE13      29.87F
6HR MIN TEMP:  74; 6HR MAX TEMP:  87; 6HR PCP: TRACE;

ALEXANDRIA     PTSUNNY   83  73  72 SE6       29.89F
6HR MIN TEMP:  73; 6HR MAX TEMP:  84;


$$

LAZ001-002-011900-
NORTHWEST LOUISIANA

CITY           SKY/WX    TMP DP  RH WIND       PRES   REMARKS
SHREVEPORT     LGT RAIN  83  75  77 E7        29.85F
6HR MIN TEMP:  73; 6HR MAX TEMP:  87; 6HR PCP:  0.02;

BARKSDALE AFB  PTSUNNY   88  71  57 S14       29.86F
6HR MIN TEMP:  70; 6HR MAX TEMP:  88;

DTN SHREVEPORT PTSUNNY   86  70  58 SE6       29.86F
6HR MIN TEMP:  73; 6HR MAX TEMP:  86;


$$

LAZ014-016-011900-
NORTHEAST LOUISIANA

CITY           SKY/WX    TMP DP  RH WIND       PRES   REMARKS
MONROE         PTSUNNY   85  71  63 S9        29.91F
6HR MIN TEMP:  72; 6HR MAX TEMP:  85;

TALLULAH       FAIR      87  66  49 SE13      29.92F
6HR MIN TEMP:  72; 6HR MAX TEMP:  87;


$$




USA.gov is the U.S. government's official web portal to all federal, state and local government web resources and services.